Regional Weather Roundup
Issued by NWS

Home | Current Version | Previous Version | Graphics & Text | Print | Product List | Glossary On
Versions: 1 2 3 4 5 6 7 8 9 10 11 12 13 14 15 16 17 18 19 20 21 22 23 24 25 26 27 28 29 30 31 32 33 34 35 36 37 38 39 40 41 42 43 44 45 46 47 48 49 50
531
ASUS44 KLIX 270610
RWRLA
LOUISIANA WEATHER ROUNDUP
NATIONAL WEATHER SERVICE NEW ORLEANS LA
1200 AM CST TUE JAN 27 2015

NOTE: "FAIR" INDICATES FEW OR NO CLOUDS BELOW 12,000 FEET WITH NO
      SIGNIFICANT WEATHER AND/OR OBSTRUCTIONS TO VISIBILITY.
      SKY/WX - SKY CONDITION AND SIGNIFICANT WEATHER.
      TMP - AIR TEMPERATURE.    DP   - DEWPOINT TEMPERATURE.
      RH  - RELATIVE HUMIDITY.  PRES - PRESSURE.
      HX  - HEAT INDEX.         WCI  - WIND CHILL INDEX.

*  THESE STATIONS ARE NOT NWS OR FAA STATIONS AND ARE NOT UNDER
   NWS QUALITY CONTROL.

LAZ040-048-061>063-065-066-069-270700-
SOUTHEAST LOUISIANA

CITY           SKY/WX    TMP DP  RH WIND       PRES   REMARKS
N.O. AUDUBON     N/A     47  39  74 MISG        N/A
6HR MIN TEMP:  47; 6HR MAX TEMP:  56;

N.O. INTL ARPT CLEAR     49  37  63 W9        30.10S
6HR MIN TEMP:  47; 6HR MAX TEMP:  56;

N.O. LAKEFRONT CLEAR     54  40  59 W10       30.10R
6HR MIN TEMP:  54; 6HR MAX TEMP:  55;

N.O. DOWNTOWN* FAIR      52  34  50 SW3       30.10S
6HR MIN TEMP:  52; 6HR MAX TEMP:  59;

SLIDELL        CLEAR     43  37  79 CALM      30.09R
6HR MIN TEMP:  42; 6HR MAX TEMP:  53;

BATON ROUGE    CLEAR     46  36  68 W5        30.11R
6HR MIN TEMP:  45; 6HR MAX TEMP:  52;

BOOTHVILLE     CLEAR     52  45  77 W8        30.10S
6HR MIN TEMP:  48; 6HR MAX TEMP:  54;

BELLE CHASSE   CLEAR     50  36  58 W6        30.10R
6HR MIN TEMP:  43; 6HR MAX TEMP:  56;

BOGALUSA*        N/A     38  34  86 CALM      30.10S
6HR MIN TEMP:  38; 6HR MAX TEMP:  49;

GALLIANO*      CLEAR     50  45  82 MISG      30.12S
6HR MIN TEMP:  47; 6HR MAX TEMP:  56;

NEW ROADS*     FAIR      43  37  80 CALM      30.11S
6HR MIN TEMP:  42; 6HR MAX TEMP:  53;

GONZALES*      FAIR      47  40  76 CALM      30.11S
6HR MIN TEMP:  45; 6HR MAX TEMP:  56;

HAMMOND*       CLEAR     46  36  66 CALM      30.12R
HOUMA*         CLEAR     46  44  91 SW5       30.12S
6HR MIN TEMP:  42; 6HR MAX TEMP:  56;

PORT FOURCHON* CLEAR     54  46  76 W10       30.15F

$$

LAZ041-044-053-054-270700-
SOUTHWEST LOUISIANA

CITY           SKY/WX    TMP DP  RH WIND       PRES   REMARKS
LAKE CHARLES   PTCLDY    50  43  77 SW5       30.12F
6HR MIN TEMP:  45; 6HR MAX TEMP:  58;

LAFAYETTE      CLEAR     50  45  83 W8        30.12S
6HR MIN TEMP:  45; 6HR MAX TEMP:  55;

PATTERSON      CLEAR     46  43  87 SW7       30.13S
6HR MIN TEMP:  45; 6HR MAX TEMP:  55;

SALT POINT       N/A     53  50  89 W7        30.12F
6HR MIN TEMP:  51; 6HR MAX TEMP:  54;

NEW IBERIA     CLEAR     47  44  90 W5        30.13S
6HR MIN TEMP:  45; 6HR MAX TEMP:  56;

CHENAULT AIRPK PTCLDY    52  40  64 SW6       30.13S
6HR MIN TEMP:  46; 6HR MAX TEMP:  59;


$$

LAZ027-028-270700-
CENTRAL LOUISIANA

CITY           SKY/WX    TMP DP  RH WIND       PRES   REMARKS
FORT POLK      CLEAR     50  38  62 SW3       30.09S
6HR MIN TEMP:  48; 6HR MAX TEMP:  55;

ALEXANDRIA INT CLEAR     46  37  71 CALM      30.07F
6HR MIN TEMP:  44; 6HR MAX TEMP:  55;

ALEXANDRIA     CLEAR     38  35  89 CALM      30.08F
6HR MIN TEMP:  37; 6HR MAX TEMP:  53;


$$

LAZ001-002-270700-
NORTHWEST LOUISIANA

CITY           SKY/WX    TMP DP  RH WIND       PRES   REMARKS
SHREVEPORT     CLEAR     45  36  70 CALM      30.06S
6HR MIN TEMP:  44; 6HR MAX TEMP:  59;

BARKSDALE AFB  CLEAR     41  36  81 CALM      30.07S
DTN SHREVEPORT CLEAR     42  34  73 CALM      30.06F
6HR MIN TEMP:  42; 6HR MAX TEMP:  59;


$$

LAZ014-016-270700-
NORTHEAST LOUISIANA

CITY           SKY/WX    TMP DP  RH WIND       PRES   REMARKS
MONROE         CLEAR     47  35  63 SW3       30.06S
6HR MIN TEMP:  46; 6HR MAX TEMP:  53;

TALLULAH       CLEAR     42  35  76 CALM      30.05F
6HR MIN TEMP:  39; 6HR MAX TEMP:  50;


$$




USA.gov is the U.S. government's official web portal to all federal, state and local government web resources and services.